Date String (YYYY-MM-DD hh:mm:ss) UTC,Instrument flags,absolute air pressure of the measurement (hPa),sample flow rate (lpm),inlet stack bypass flow (lpm),air temperature of the measurement (°C),ambient temperature measured by the external sensor (°C),aerosol sample conditioner tube jacket temperature (°C),OPC LED temperature (°C),internal box temperature (°C),relative humidity of the measurement (%),span deviation,mass concentration of particles derived from Lorenz-Mie calculation of OPC scattering (μg/m³),mass concentration of particles derived from Lorenz-Mie calculation of OPC scattering (μg/m³),mass concentration of particles derived from Lorenz-Mie calculation of OPC scattering (μg/m³)
DateTimeUTC,F1_M11,P_M11,Q1_M11,Q2_M11,T1_M11,T2_M11,T3_M11,T4_M11,T5_M11,U1_M11,ZSPAN_M11,X0_M11,X2_M11,X1_M11
2023-07-06 12:00:00,SystemResetWarning,0833.4,5.00,000.00,030.3,028.7,000.0,038.9,031.8,33.6,-002.7,0012.60,0008.67,0008.28
2023-07-06 12:01:00,SystemResetWarning,0833.4,5.00,000.00,030.3,028.7,000.0,038.9,031.7,33.6,-002.7,0012.96,0008.89,0008.49
2023-07-06 12:02:00,SystemResetWarning,0833.5,5.00,000.00,030.3,028.7,000.0,038.9,031.7,33.7,-002.5,0013.11,0009.02,0008.64
2023-07-06 12:03:00,SystemResetWarning,0833.5,5.01,000.00,030.3,028.7,000.0,038.9,031.7,33.7,-002.7,0013.16,0009.07,0008.71
2023-07-06 12:04:00,SystemResetWarning,0833.5,5.01,000.00,030.2,028.7,000.0,038.9,031.7,33.7,-002.6,0013.22,0009.11,0008.75
2023-07-06 12:05:00,SystemResetWarning,0833.4,5.00,000.00,030.2,028.7,000.0,038.9,031.7,33.8,-002.6,0013.40,0009.18,0008.79
2023-07-06 12:06:00,SystemResetWarning,0833.4,5.00,000.00,030.2,028.6,000.0,038.9,031.7,33.8,-002.7,0013.54,0009.23,0008.82
2023-07-06 12:07:00,SystemResetWarning,0833.3,5.00,000.00,030.2,028.6,000.0,038.9,031.7,33.8,-002.8,0013.49,0009.21,0008.81
2023-07-06 12:08:00,SystemResetWarning,0833.2,4.99,000.00,030.3,028.7,000.0,038.9,031.7,33.7,-002.9,0013.42,0009.21,0008.81
2023-07-06 12:09:00,SystemResetWarning,0833.2,5.00,000.00,030.2,028.7,000.0,038.9,031.7,33.7,-002.8,0013.41,0009.18,0008.77
2023-07-06 12:10:00,SystemResetWarning,0833.1,5.00,000.00,030.2,028.7,000.0,038.9,031.7,33.7,-002.7,0013.45,0009.16,0008.74
2023-07-06 12:11:00,SystemResetWarning,0833.1,5.00,000.00,030.2,028.6,000.0,038.9,031.7,33.6,-002.8,0013.29,0009.08,0008.69
2023-07-06 12:12:00,SystemResetWarning,0833.1,5.00,000.00,030.3,028.6,000.0,038.9,031.7,33.6,-002.7,0013.16,0009.04,0008.65
2023-07-06 12:13:00,SystemResetWarning,0833.0,5.01,000.00,030.3,028.6,000.0,038.9,031.7,33.7,-002.7,0013.05,0009.03,0008.62
2023-07-06 12:14:00,SystemResetWarning,0833.1,5.01,000.00,030.2,028.6,000.0,038.9,031.7,33.7,-002.6,0013.00,0008.99,0008.58
2023-07-06 12:15:00,SystemResetWarning,0833.1,5.01,000.00,030.2,028.6,000.0,038.9,031.7,33.7,-002.7,0012.97,0008.95,0008.52
2023-07-06 12:16:00,SystemResetWarning,0833.2,5.00,000.00,030.2,028.7,000.0,038.9,031.7,33.7,-002.7,0013.31,0008.89,0008.46
2023-07-06 12:17:00,SystemResetWarning,0833.3,4.99,000.00,030.2,028.7,000.0,038.8,031.7,33.7,-002.5,0013.17,0008.83,0008.41
2023-07-06 12:18:00,SystemResetWarning,0833.4,5.00,000.00,030.2,028.7,000.0,038.8,031.7,33.7,-002.5,0013.24,0008.85,0008.42
2023-07-06 12:19:00,SystemResetWarning,0833.6,5.00,000.00,030.2,028.7,000.0,038.9,031.7,33.7,-002.5,0013.12,0008.85,0008.40
2023-07-06 12:20:00,SystemResetWarning,0833.5,4.99,000.00,030.2,028.8,000.0,038.8,031.7,33.7,-002.5,0013.14,0008.88,0008.44
2023-07-06 12:21:00,SystemResetWarning,0833.6,5.00,000.00,030.2,028.8,000.0,038.8,031.7,33.7,-002.4,0013.23,0008.93,0008.46
2023-07-06 12:22:00,SystemResetWarning,0833.6,5.00,000.00,030.2,028.8,000.0,038.8,031.7,33.7,-002.3,0013.15,0008.92,0008.46
2023-07-06 12:23:00,SystemResetWarning,0833.5,5.00,000.00,030.3,028.8,000.0,038.8,031.7,33.7,-002.3,0013.12,0008.90,0008.44
2023-07-06 12:24:00,SystemResetWarning,0833.4,5.00,000.00,030.3,028.9,000.0,038.8,031.7,33.6,-002.4,0013.15,0008.86,0008.41
2023-07-06 12:25:00,SystemResetWarning,0833.4,5.00,000.00,030.3,028.9,000.0,038.8,031.8,33.7,-002.6,0013.28,0008.84,0008.37
2023-07-06 12:26:00,SystemResetWarning,0833.4,5.00,000.00,030.3,028.9,000.0,038.9,031.8,33.6,-002.5,0013.39,0008.83,0008.35
2023-07-06 12:27:00,SystemResetWarning,0833.5,5.00,000.00,030.3,028.9,000.0,038.9,031.7,33.6,-002.4,0013.00,0008.75,0008.30
2023-07-06 12:28:00,SystemResetWarning,0833.6,4.99,000.00,030.3,028.8,000.0,038.9,031.7,33.6,-002.6,0012.67,0008.66,0008.25
2023-07-06 12:29:00,SystemResetWarning,0833.7,4.99,000.00,030.3,028.8,000.0,038.9,031.7,33.6,-002.6,0012.51,0008.58,0008.20
2023-07-06 12:30:00,SystemResetWarning,0833.7,4.99,000.00,030.3,028.8,000.0,038.9,031.8,33.6,-002.5,0012.47,0008.53,0008.14
2023-07-06 12:31:00,SystemResetWarning,0833.7,5.00,000.00,030.3,028.7,000.0,038.9,031.7,33.6,-002.7,0012.39,0008.48,0008.11
2023-07-06 12:32:00,SystemResetWarning,0833.7,5.00,000.00,030.3,028.7,000.0,038.9,031.7,33.7,-002.7,0012.21,0008.41,0008.06
2023-07-06 12:33:00,SystemResetWarning,0833.7,5.01,000.00,030.3,028.8,000.0,038.9,031.7,33.7,-002.6,0012.16,0008.37,0008.02
2023-07-06 12:34:00,SystemResetWarning,0833.7,5.01,000.00,030.3,028.8,000.0,038.9,031.8,33.7,-002.7,0012.15,0008.37,0008.02
2023-07-06 12:35:00,SystemResetWarning,0833.7,5.00,000.00,030.3,028.8,000.0,038.9,031.8,33.8,-002.7,0012.06,0008.31,0007.98
2023-07-06 12:36:00,SystemResetWarning,0833.7,5.00,000.00,030.3,028.8,000.0,038.9,031.7,33.8,-002.6,0011.86,0008.27,0007.96
2023-07-06 12:37:00,SystemResetWarning,0833.7,4.99,000.00,030.3,028.8,000.0,038.9,031.8,33.9,-002.6,0011.81,0008.24,0007.93
2023-07-06 12:38:00,SystemResetWarning,0833.7,4.99,000.00,030.3,028.8,000.0,038.9,031.7,33.9,-002.6,0011.82,0008.23,0007.92
2023-07-06 12:39:00,SystemResetWarning,0833.8,5.00,000.00,030.3,028.9,000.0,038.9,031.8,33.8,-002.4,0011.93,0008.27,0007.93
2023-07-06 12:40:00,SystemResetWarning,0833.8,5.01,000.00,030.3,028.9,000.0,038.9,031.8,33.9,-002.5,0012.23,0008.36,0007.97
2023-07-06 12:41:00,SystemResetWarning,0833.8,5.01,000.00,030.3,028.9,000.0,038.9,031.8,33.9,-002.5,0013.05,0008.38,0007.99
2023-07-06 12:42:00,SystemResetWarning,0833.8,4.99,000.00,030.3,028.9,000.0,038.9,031.8,33.8,-002.4,0013.45,0008.40,0008.00
2023-07-06 12:43:00,SystemResetWarning,0833.7,5.00,000.00,030.3,028.9,000.0,038.9,031.8,33.8,-002.5,0013.54,0008.42,0008.01
2023-07-06 12:44:00,SystemResetWarning,0833.8,5.00,000.00,030.3,028.9,000.0,038.9,031.8,33.8,-002.7,0013.65,0008.46,0008.03
2023-07-06 12:45:00,SystemResetWarning,0833.7,5.00,000.00,030.3,028.9,000.0,038.9,031.8,33.8,-002.6,0013.83,0008.50,0008.05
2023-07-06 12:46:00,SystemResetWarning,0833.6,5.00,000.00,030.4,028.9,000.0,038.9,031.8,33.8,-002.6,0013.82,0008.51,0008.06
2023-07-06 12:47:00,SystemResetWarning,0833.6,4.99,000.00,030.4,028.9,000.0,038.9,031.8,33.8,-002.6,0013.88,0008.54,0008.08
2023-07-06 12:48:00,SystemResetWarning,0833.7,5.00,000.00,030.4,029.0,000.0,038.9,031.8,33.8,-002.6,0013.89,0008.56,0008.11
2023-07-06 12:49:00,SystemResetWarning,0833.7,5.00,000.00,030.4,029.0,000.0,038.9,031.8,33.8,-002.8,0013.82,0008.61,0008.15
2023-07-06 12:50:00,SystemResetWarning,0833.7,5.00,000.00,030.4,027.7,000.0,038.8,031.7,33.9,-002.9,0013.74,0008.60,0008.18
2023-07-06 12:51:00,SystemResetWarning,0833.7,5.00,000.00,030.3,026.0,000.0,038.7,031.5,33.9,-002.7,0013.59,0008.58,0008.19
2023-07-06 12:52:00,SystemResetWarning,0833.7,5.01,000.00,030.2,025.5,000.0,038.6,031.2,34.1,-002.7,0013.00,0008.57,0008.20
2023-07-06 12:53:00,SystemResetWarning,0833.7,5.02,000.00,030.0,025.7,000.0,038.6,031.0,34.5,-002.5,0012.30,0008.57,0008.21
2023-07-06 12:54:00,SystemResetWarning,0833.7,4.99,000.00,029.9,026.1,000.0,038.6,031.0,34.7,-002.4,0012.32,0008.57,0008.22
2023-07-06 12:55:00,SystemResetWarning,0833.7,4.99,000.00,029.9,026.5,000.0,038.6,031.0,34.9,-002.3,0012.32,0008.60,0008.24
2023-07-06 12:56:00,SystemResetWarning,0833.7,5.00,000.00,029.8,026.9,000.0,038.6,031.1,35.0,-002.2,0012.24,0008.57,0008.25
2023-07-06 12:57:00,SystemResetWarning,0833.7,5.03,000.00,029.9,027.2,000.0,038.6,031.2,34.9,-002.1,0012.42,0008.57,0008.25
2023-07-06 12:58:00,SystemResetWarning,0833.7,4.97,000.00,030.0,027.4,000.0,038.6,031.2,34.6,-002.2,0012.57,0008.64,0008.29
2023-07-06 12:59:00,SystemResetWarning,0833.7,5.00,000.00,030.1,027.6,000.0,038.6,031.3,34.4,-002.2,0012.65,0008.66,0008.29
